Home   Weather   Torrevieja   Past weeks

Flag for Spain Past Weather in Torrevieja, Spain — Yesterday and Last 2 Weeks

Now
66 °F

Passing clouds.


Feels Like: 66 °F
Forecast: 58 / 66 °F
Wind: 5 mph from Southwest

Location: Murcia / San Javier

Current Time: Apr 30, 2017 at 11:02:52 pm

Latest Report: Apr 30, 2017 at 10:00 pm


Visibility: N/A

Pressure: 29.89 "Hg

Humidity: 68%

Dew Point: 55 °F

Location of TorreviejaLocation

Past Weather in Torrevieja — Graph

°F

Torrevieja Temperature Yesterday

Maximum temperature yesterday: 61 °F (at 1:00 pm)
Minimum temperature yesterday: 55 °F (at 8:00 am)
Average temperature yesterday: 59 °F

High & Low Weather Summary for the Past Weeks

 TemperatureHumidityPressure
High77 °F (Apr 26, 1:00 pm)94% (Apr 17, 7:00 am)30.33 "Hg (Apr 17, 7:00 am)
Low54 °F (Apr 23, 8:00 am)38% (Apr 25, 4:00 pm)29.71 "Hg (Apr 26, 7:00 am)
Average64 °F72%30.02 "Hg
* Reported Apr 15 10:00 pm — Apr 30 10:00 pm, Torrevieja, Weather by CustomWeather, © 2017

Note: Actual official high and low records may vary slightly from our data, if they occured in-between our weather recording intervals... More about our weather records

Advertising

Torrevieja Weather History for the Previous 24 Hours

Scroll right to see more
 ConditionsComfort  
Time TempWeatherWind HumidityBarometerVisibility
10:00 pm
Sun, Apr 30
66 °FPassing clouds.5 mph68%29.89 "HgN/A
9:00 pm68 °FPassing clouds.9 mph60%29.86 "HgN/A
8:00 pm68 °FPassing clouds.10 mph69%29.83 "HgN/A
7:00 pm70 °FPassing clouds.12 mph60%29.83 "HgN/A
6:00 pm72 °FPassing clouds.16 mph53%29.83 "HgN/A
5:00 pm72 °FPassing clouds.16 mph57%29.86 "HgN/A
4:00 pm72 °FPassing clouds.17 mph61%29.86 "HgN/A
3:00 pm72 °FPassing clouds.16 mph65%29.89 "HgN/A
2:00 pm70 °FPassing clouds.16 mph69%29.92 "HgN/A
1:00 pm68 °FPassing clouds.18 mph69%29.92 "HgN/A
12:00 pm68 °FPassing clouds.15 mph69%29.95 "HgN/A
11:00 am68 °FScattered clouds.12 mph69%29.95 "HgN/A
10:00 am64 °FPassing clouds.1 mph78%29.95 "HgN/A
9:00 am61 °FScattered clouds.3 mph83%29.98 "HgN/A
8:00 am57 °FPassing clouds.2 mph94%29.95 "HgN/A
11:00 pm
Sat, Apr 29
61 °FPassing clouds.No wind83%29.98 "HgN/A
Weather by CustomWeather, © 2017

See weather overviewHow to use our weather pages